TimeMST,TemperatureF,Dew PointF,Humidity,Sea Level PressureIn,VisibilityMPH,Wind Direction,Wind SpeedMPH,Gust SpeedMPH,PrecipitationIn,Events,Conditions,WindDirDegrees,DateUTC
12:15 AM,35.6,15.8,44,30.39,10.0,Calm,Calm,-,N/A,,Clear,0,2013-03-02 07:15:00
12:35 AM,39.2,17.6,42,30.39,10.0,NW,4.6,-,N/A,,Clear,310,2013-03-02 07:35:00
12:55 AM,35.6,15.8,44,30.40,10.0,Calm,Calm,-,N/A,,Clear,0,2013-03-02 07:55:00
1:15 AM,32.0,15.8,51,30.40,10.0,Calm,Calm,-,N/A,,Clear,0,2013-03-02 08:15:00
1:35 AM,30.2,12.2,47,30.40,10.0,West,4.6,-,N/A,,Clear,280,2013-03-02 08:35:00
1:55 AM,28.4,14.0,55,30.40,10.0,Calm,Calm,-,N/A,,Clear,0,2013-03-02 08:55:00
2:15 AM,28.4,10.4,47,30.40,10.0,West,4.6,-,N/A,,Clear,280,2013-03-02 09:15:00
2:55 AM,26.6,10.4,51,30.38,10.0,West,11.5,-,N/A,,Clear,280,2013-03-02 09:55:00
3:15 AM,32.0,15.8,51,30.38,10.0,Calm,Calm,-,N/A,,Clear,0,2013-03-02 10:15:00
3:35 AM,33.8,17.6,52,30.39,10.0,Calm,Calm,-,N/A,,Clear,0,2013-03-02 10:35:00
3:55 AM,32.0,14.0,48,30.39,10.0,Calm,Calm,-,N/A,,Clear,0,2013-03-02 10:55:00
4:15 AM,28.4,14.0,55,30.40,10.0,Calm,Calm,-,N/A,,Clear,0,2013-03-02 11:15:00
5:50 AM,33.8,15.8,48,30.41,10.0,Calm,Calm,-,N/A,,Clear,0,2013-03-02 12:50:00
6:50 AM,28.4,15.8,59,30.42,10.0,Calm,Calm,-,N/A,,Clear,0,2013-03-02 13:50:00
7:50 AM,33.8,17.6,52,30.43,10.0,Calm,Calm,-,N/A,,Clear,0,2013-03-02 14:50:00
8:50 AM,44.6,17.6,34,30.45,10.0,NNW,13.8,-,N/A,,Clear,330,2013-03-02 15:50:00
9:50 AM,48.2,17.6,30,30.43,10.0,North,15.0,-,N/A,,Clear,350,2013-03-02 16:50:00
10:50 AM,48.2,19.4,32,30.42,10.0,NNW,9.2,-,N/A,,Clear,330,2013-03-02 17:50:00
11:50 AM,50.0,19.4,30,30.40,10.0,WNW,8.1,-,N/A,,Partly Cloudy,300,2013-03-02 18:50:00
12:50 PM,53.6,19.4,26,30.36,10.0,Variable,5.8,-,N/A,,Partly Cloudy,0,2013-03-02 19:50:00
1:50 PM,57.2,17.6,21,30.32,10.0,Variable,6.9,-,N/A,,Partly Cloudy,0,2013-03-02 20:50:00
2:50 PM,59.0,17.6,20,30.30,10.0,Variable,5.8,-,N/A,,Partly Cloudy,0,2013-03-02 21:50:00
3:50 PM,59.0,17.6,20,30.28,10.0,Variable,5.8,-,N/A,,Partly Cloudy,0,2013-03-02 22:50:00
4:50 PM,60.8,15.8,17,30.27,10.0,Calm,Calm,-,N/A,,Partly Cloudy,0,2013-03-02 23:50:00
5:50 PM,57.2,14.0,18,30.26,10.0,WSW,6.9,-,N/A,,Partly Cloudy,250,2013-03-03 00:50:00
6:50 PM,48.2,12.2,24,30.26,10.0,NW,4.6,-,N/A,,Clear,310,2013-03-03 01:50:00
7:50 PM,46.4,10.4,23,30.26,10.0,WSW,6.9,-,N/A,,Clear,240,2013-03-03 02:50:00
8:50 PM,41.0,10.4,29,30.27,10.0,SW,6.9,-,N/A,,Clear,230,2013-03-03 03:50:00
9:15 PM,44.6,14.0,29,30.27,10.0,South,3.5,-,N/A,,Clear,190,2013-03-03 04:15:00
9:35 PM,42.8,12.2,29,30.27,10.0,Calm,Calm,-,N/A,,Clear,0,2013-03-03 04:35:00
9:45 PM,42.8,14.0,31,30.27,10.0,Calm,Calm,-,N/A,,Clear,0,2013-03-03 04:45:00
9:55 PM,42.8,14.0,31,30.26,10.0,Calm,Calm,-,N/A,,Clear,0,2013-03-03 04:55:00
10:15 PM,39.2,10.4,31,30.26,10.0,Calm,Calm,-,N/A,,Clear,0,2013-03-03 05:15:00
10:35 PM,39.2,12.2,33,30.26,10.0,Calm,Calm,-,N/A,,Clear,0,2013-03-03 05:35:00
10:55 PM,35.6,8.6,33,30.25,10.0,West,5.8,-,N/A,,Clear,260,2013-03-03 05:55:00
11:15 PM,33.8,8.6,35,30.25,10.0,WSW,5.8,-,N/A,,Clear,250,2013-03-03 06:15:00
11:35 PM,35.6,8.6,33,30.24,10.0,Calm,Calm,-,N/A,,Clear,0,2013-03-03 06:35:00
11:55 PM,39.2,12.2,33,30.23,10.0,WNW,4.6,-,N/A,,Clear,290,2013-03-03 06:55:00